APZ706 RKTN-RKPC

Flight info

Callsign APZ706
Flight time 0h 41m
Altitude 21000
Route KABAS1 MASTA Z83 ENGOT Y572 UPGOS UPGOS2M
Aircraft B738/M-SDE2E3FGHIRWXY/LB1

Departure

Time 2026-05-04 00:59
Airport Daegu International Airport (RKTN)

Arrival

Time 2026-05-04 01:40
Airport Jeju International Airport (RKPC)
Time Latitude Longitude Altitude Speed Heading
2026-05-04 00:28 35.90047 128.63878 131 ft 0 kts 212°
2026-05-04 00:47 35.90065 128.63890 131 ft 4 kts 198°
2026-05-04 00:47 35.90090 128.63894 131 ft 4 kts 164°
2026-05-04 00:48 35.90112 128.63878 131 ft 4 kts 129°
2026-05-04 00:48 35.90117 128.63870 131 ft 0 kts 124°
2026-05-04 00:51 35.90101 128.63899 131 ft 9 kts 124°
2026-05-04 00:51 35.90091 128.63979 131 ft 11 kts 57°
2026-05-04 00:51 35.90146 128.64037 131 ft 10 kts 44°
2026-05-04 00:52 35.90152 128.64117 131 ft 10 kts 118°
2026-05-04 00:52 35.90113 128.64192 131 ft 13 kts 124°
2026-05-04 00:52 35.90042 128.64319 131 ft 22 kts 124°
2026-05-04 00:52 35.89956 128.64473 131 ft 22 kts 124°
2026-05-04 00:53 35.89872 128.64624 131 ft 21 kts 124°
2026-05-04 00:53 35.89792 128.64770 132 ft 20 kts 123°
2026-05-04 00:53 35.89715 128.64911 132 ft 20 kts 124°
2026-05-04 00:53 35.89639 128.65048 132 ft 19 kts 125°
2026-05-04 00:54 35.89564 128.65181 131 ft 18 kts 124°
2026-05-04 00:54 35.89494 128.65309 131 ft 18 kts 124°
2026-05-04 00:54 35.89425 128.65433 129 ft 17 kts 124°
2026-05-04 00:54 35.89358 128.65552 131 ft 17 kts 124°
2026-05-04 00:55 35.89294 128.65667 131 ft 16 kts 124°
2026-05-04 00:55 35.89233 128.65778 131 ft 15 kts 124°
2026-05-04 00:55 35.89174 128.65886 132 ft 16 kts 123°
2026-05-04 00:55 35.89096 128.66027 131 ft 23 kts 124°
2026-05-04 00:56 35.89006 128.66189 128 ft 23 kts 124°
2026-05-04 00:56 35.88919 128.66347 130 ft 22 kts 124°
2026-05-04 00:56 35.88834 128.66501 129 ft 21 kts 124°
2026-05-04 00:56 35.88752 128.66650 126 ft 21 kts 124°
2026-05-04 00:57 35.88671 128.66793 128 ft 20 kts 124°
2026-05-04 00:57 35.88594 128.66932 129 ft 17 kts 124°
2026-05-04 00:57 35.88602 128.67044 131 ft 15 kts 36°
2026-05-04 00:57 35.88686 128.67067 127 ft 13 kts 323°
2026-05-04 00:58 35.88709 128.67032 128 ft 2 kts 304°
2026-05-04 00:58 35.88852 128.66777 129 ft 73 kts 304°
2026-05-04 00:58 35.89271 128.66023 132 ft 136 kts 305°
2026-05-04 00:58 35.89852 128.64998 695 ft 146 kts 306°
2026-05-04 00:59 35.90435 128.63944 1482 ft 149 kts 303°
2026-05-04 00:59 35.91006 128.62907 2367 ft 147 kts 303°
2026-05-04 00:59 35.91602 128.61843 3106 ft 156 kts 303°
2026-05-04 00:59 35.92273 128.60615 3440 ft 186 kts 303°
2026-05-04 01:00 35.93045 128.59198 3818 ft 207 kts 304°
2026-05-04 01:00 35.93688 128.57618 4625 ft 210 kts 287°
2026-05-04 01:00 35.93749 128.55788 5548 ft 220 kts 269°
2026-05-04 01:00 35.93163 128.53910 6128 ft 251 kts 244°
2026-05-04 01:01 35.92049 128.52208 6928 ft 262 kts 237°
2026-05-04 01:01 35.90812 128.50532 7844 ft 265 kts 236°
2026-05-04 01:01 35.89555 128.48834 8769 ft 268 kts 236°
2026-05-04 01:01 35.88303 128.47122 9677 ft 270 kts 237°
2026-05-04 01:02 35.87038 128.45377 10429 ft 277 kts 236°
2026-05-04 01:02 35.85683 128.43547 10652 ft 306 kts 230°
2026-05-04 01:02 35.83754 128.42150 10831 ft 348 kts 204°
2026-05-04 01:02 35.81218 128.41899 11063 ft 386 kts 175°
2026-05-04 01:03 35.78563 128.42817 11662 ft 400 kts 164°
2026-05-04 01:03 35.75943 128.44031 12448 ft 403 kts 162°
2026-05-04 01:03 35.73314 128.45289 13258 ft 405 kts 163°
2026-05-04 01:03 35.70702 128.46501 13997 ft 407 kts 164°
2026-05-04 01:04 35.68017 128.47695 14593 ft 413 kts 165°
2026-05-04 01:04 35.65283 128.48870 15233 ft 417 kts 166°
2026-05-04 01:04 35.62526 128.50033 15931 ft 419 kts 166°
2026-05-04 01:04 35.59748 128.51193 16603 ft 422 kts 167°
2026-05-04 01:05 35.57041 128.52321 17175 ft 427 kts 167°
2026-05-04 01:05 35.54239 128.53491 17812 ft 430 kts 167°
2026-05-04 01:05 35.51391 128.54680 18392 ft 433 kts 168°
2026-05-04 01:05 35.48512 128.55802 18940 ft 431 kts 175°
2026-05-04 01:06 35.45594 128.56036 19486 ft 413 kts 193°
2026-05-04 01:06 35.42775 128.55732 20141 ft 411 kts 194°
2026-05-04 01:06 35.39918 128.55435 20640 ft 410 kts 195°
2026-05-04 01:06 35.37056 128.55152 20781 ft 412 kts 194°
2026-05-04 01:07 35.34183 128.54884 20935 ft 416 kts 194°
2026-05-04 01:07 35.31283 128.54617 20940 ft 427 kts 194°
2026-05-04 01:07 35.28291 128.54348 20939 ft 434 kts 194°
2026-05-04 01:07 35.25267 128.54085 20931 ft 435 kts 194°
2026-05-04 01:08 35.22248 128.53830 20950 ft 433 kts 194°
2026-05-04 01:08 35.19238 128.53572 20921 ft 433 kts 194°
2026-05-04 01:08 35.17242 128.53398 20937 ft 434 kts 194°
2026-05-04 01:08 35.13248 128.53048 20949 ft 434 kts 194°
2026-05-04 01:09 35.10234 128.52770 20942 ft 432 kts 195°
2026-05-04 01:09 35.07238 128.52469 20951 ft 431 kts 195°
2026-05-04 01:09 35.05254 128.52264 20952 ft 431 kts 195°
2026-05-04 01:09 35.02265 128.51953 20958 ft 431 kts 195°
2026-05-04 01:10 34.99269 128.51644 20956 ft 431 kts 195°
2026-05-04 01:10 34.96270 128.51338 20969 ft 431 kts 195°
2026-05-04 01:10 34.93272 128.51035 20962 ft 432 kts 196°
2026-05-04 01:10 34.90269 128.50732 20962 ft 432 kts 196°
2026-05-04 01:11 34.87298 128.50433 20966 ft 433 kts 196°
2026-05-04 01:11 34.84319 128.50026 20956 ft 422 kts 203°
2026-05-04 01:11 34.81630 128.48865 20983 ft 402 kts 217°
2026-05-04 01:11 34.79275 128.47098 20992 ft 393 kts 226°
2026-05-04 01:12 34.77334 128.44859 20981 ft 384 kts 237°
2026-05-04 01:12 34.75599 128.42383 20980 ft 384 kts 237°
2026-05-04 01:12 34.73848 128.39911 20986 ft 384 kts 236°
2026-05-04 01:12 34.72094 128.37449 20985 ft 385 kts 236°
2026-05-04 01:13 34.70332 128.34988 20982 ft 385 kts 236°
2026-05-04 01:13 34.68585 128.32557 20985 ft 385 kts 236°
2026-05-04 01:13 34.66812 128.30095 20987 ft 386 kts 236°
2026-05-04 01:13 34.65041 128.27640 20987 ft 386 kts 236°
2026-05-04 01:14 34.63263 128.25179 20997 ft 387 kts 236°
2026-05-04 01:14 34.61484 128.22717 20992 ft 388 kts 236°
2026-05-04 01:14 34.59723 128.20282 20993 ft 388 kts 236°
2026-05-04 01:14 34.57936 128.17816 20993 ft 388 kts 236°
2026-05-04 01:15 34.56145 128.15344 20996 ft 388 kts 236°
2026-05-04 01:15 34.54359 128.12880 20995 ft 388 kts 236°
2026-05-04 01:15 34.52573 128.10419 21000 ft 389 kts 236°
2026-05-04 01:15 34.50807 128.07987 21000 ft 389 kts 236°
2026-05-04 01:16 34.49011 128.05513 21000 ft 389 kts 236°
2026-05-04 01:16 34.47219 128.03048 20999 ft 389 kts 236°
2026-05-04 01:16 34.45425 128.00581 21005 ft 390 kts 236°
2026-05-04 01:16 34.43631 127.98116 21013 ft 390 kts 236°
2026-05-04 01:17 34.41830 127.95644 21010 ft 391 kts 236°
2026-05-04 01:17 34.40057 127.93214 20993 ft 384 kts 236°
2026-05-04 01:17 34.38315 127.90839 20879 ft 367 kts 237°
2026-05-04 01:17 34.36651 127.88572 20786 ft 351 kts 237°
2026-05-04 01:18 34.35057 127.86396 20634 ft 337 kts 237°
2026-05-04 01:18 34.33530 127.84301 20181 ft 334 kts 238°
2026-05-04 01:18 34.31987 127.82175 19498 ft 338 kts 238°
2026-05-04 01:18 34.30418 127.80017 18833 ft 342 kts 238°
2026-05-04 01:19 34.28834 127.77847 18242 ft 344 kts 238°
2026-05-04 01:19 34.27263 127.75704 17666 ft 344 kts 238°
2026-05-04 01:19 34.25674 127.73541 17167 ft 342 kts 238°
2026-05-04 01:19 34.24099 127.71396 16669 ft 340 kts 238°
2026-05-04 01:20 34.22528 127.69255 16140 ft 339 kts 238°
2026-05-04 01:20 34.20961 127.67118 15618 ft 339 kts 237°
2026-05-04 01:20 34.19418 127.65014 15122 ft 338 kts 237°
2026-05-04 01:20 34.17850 127.62878 14651 ft 338 kts 237°
2026-05-04 01:21 34.16290 127.60754 14176 ft 337 kts 237°
2026-05-04 01:21 34.14730 127.58631 13677 ft 337 kts 237°
2026-05-04 01:21 34.13193 127.56539 13196 ft 335 kts 237°
2026-05-04 01:21 34.11651 127.54446 12978 ft 330 kts 237°
2026-05-04 01:22 34.10151 127.52417 12896 ft 317 kts 237°
2026-05-04 01:22 34.08704 127.50461 12807 ft 305 kts 237°
2026-05-04 01:22 34.07330 127.48601 12727 ft 294 kts 238°
2026-05-04 01:22 34.05987 127.46778 12569 ft 286 kts 238°
2026-05-04 01:23 34.04672 127.44988 12253 ft 284 kts 238°
2026-05-04 01:23 34.03358 127.43198 11885 ft 285 kts 238°
2026-05-04 01:23 34.02054 127.41426 11560 ft 284 kts 237°
2026-05-04 01:23 34.00740 127.39647 11256 ft 283 kts 237°
2026-05-04 01:24 33.99433 127.37879 10944 ft 282 kts 237°
2026-05-04 01:24 33.98147 127.36125 10625 ft 279 kts 240°
2026-05-04 01:24 33.97320 127.34107 10276 ft 263 kts 265°
2026-05-04 01:24 33.97278 127.31961 9960 ft 253 kts 283°
2026-05-04 01:25 33.97794 127.29989 9594 ft 249 kts 300°
2026-05-04 01:25 33.98750 127.28254 9255 ft 247 kts 306°
2026-05-04 01:25 33.99761 127.26574 9063 ft 248 kts 306°
2026-05-04 01:25 34.00786 127.24877 9026 ft 251 kts 306°
2026-05-04 01:26 34.01805 127.23177 9020 ft 248 kts 306°
2026-05-04 01:26 34.02813 127.21489 9013 ft 248 kts 306°
2026-05-04 01:26 34.03809 127.19816 9018 ft 249 kts 306°
2026-05-04 01:26 34.04818 127.18116 9023 ft 249 kts 304°
2026-05-04 01:27 34.05522 127.16203 9022 ft 252 kts 286°
2026-05-04 01:27 34.05661 127.14073 9028 ft 256 kts 274°
2026-05-04 01:27 34.05653 127.11923 9013 ft 257 kts 274°
2026-05-04 01:27 34.05643 127.09762 9017 ft 257 kts 274°
2026-05-04 01:28 34.05638 127.07623 9016 ft 257 kts 274°
2026-05-04 01:28 34.05426 127.05488 8869 ft 264 kts 253°
2026-05-04 01:28 34.04375 127.03637 8579 ft 274 kts 231°
2026-05-04 01:28 34.02817 127.02249 8216 ft 281 kts 218°
2026-05-04 01:29 34.01122 127.01052 7892 ft 282 kts 216°
2026-05-04 01:29 33.99435 126.99908 7602 ft 280 kts 215°
2026-05-04 01:29 33.97729 126.98753 7305 ft 279 kts 215°
2026-05-04 01:29 33.96067 126.97621 7022 ft 277 kts 215°
2026-05-04 01:30 33.94393 126.96473 6740 ft 276 kts 215°
2026-05-04 01:30 33.92730 126.95327 6464 ft 275 kts 215°
2026-05-04 01:30 33.91071 126.94180 6160 ft 274 kts 215°
2026-05-04 01:30 33.89421 126.93037 5861 ft 272 kts 215°
2026-05-04 01:31 33.87783 126.91901 5585 ft 270 kts 215°
2026-05-04 01:31 33.86160 126.90775 5318 ft 268 kts 215°
2026-05-04 01:31 33.84564 126.89667 5037 ft 267 kts 215°
2026-05-04 01:31 33.82960 126.88553 4751 ft 265 kts 215°
2026-05-04 01:32 33.81361 126.87444 4452 ft 265 kts 215°
2026-05-04 01:32 33.79767 126.86337 4149 ft 264 kts 215°
2026-05-04 01:32 33.78175 126.85232 4072 ft 262 kts 215°
2026-05-04 01:32 33.76597 126.84138 4045 ft 261 kts 214°
2026-05-04 01:33 33.75040 126.83058 4050 ft 262 kts 214°
2026-05-04 01:33 33.73456 126.81959 4044 ft 263 kts 214°
2026-05-04 01:33 33.71878 126.80865 4040 ft 259 kts 214°
2026-05-04 01:33 33.70349 126.79810 4024 ft 246 kts 215°
2026-05-04 01:34 33.68900 126.78810 4029 ft 234 kts 215°
2026-05-04 01:34 33.67536 126.77868 4029 ft 222 kts 215°
2026-05-04 01:34 33.66203 126.76948 4042 ft 220 kts 215°
2026-05-04 01:34 33.64982 126.75904 4040 ft 209 kts 237°
2026-05-04 01:35 33.64231 126.74498 4043 ft 195 kts 243°
2026-05-04 01:35 33.63510 126.73153 3832 ft 190 kts 243°
2026-05-04 01:35 33.62808 126.71820 3549 ft 188 kts 243°
2026-05-04 01:35 33.62122 126.70496 3247 ft 186 kts 243°
2026-05-04 01:36 33.61442 126.69174 3085 ft 187 kts 243°
2026-05-04 01:36 33.60752 126.67830 3067 ft 190 kts 244°
2026-05-04 01:36 33.60069 126.66500 3061 ft 189 kts 244°
2026-05-04 01:36 33.59382 126.65162 3013 ft 188 kts 243°
2026-05-04 01:37 33.58688 126.63807 2830 ft 193 kts 243°
2026-05-04 01:37 33.57981 126.62432 2560 ft 192 kts 242°
2026-05-04 01:37 33.57295 126.61101 2304 ft 181 kts 243°
2026-05-04 01:37 33.56672 126.59888 2107 ft 164 kts 244°
2026-05-04 01:38 33.56097 126.58767 1868 ft 149 kts 243°
2026-05-04 01:38 33.55562 126.57718 1663 ft 146 kts 244°
2026-05-04 01:38 33.55037 126.56693 1451 ft 142 kts 244°
2026-05-04 01:38 33.54520 126.55684 1246 ft 142 kts 242°
2026-05-04 01:39 33.54002 126.54675 1052 ft 143 kts 244°
2026-05-04 01:39 33.53481 126.53657 879 ft 147 kts 243°
2026-05-04 01:39 33.52952 126.52586 694 ft 150 kts 244°
2026-05-04 01:39 33.52386 126.51516 470 ft 151 kts 242°
2026-05-04 01:40 33.51834 126.50462 255 ft 148 kts 243°
2026-05-04 01:40 33.51313 126.49420 97 ft 143 kts 242°
2026-05-04 01:40 33.50862 126.48538 95 ft 99 kts 238°
2026-05-04 01:40 33.50621 126.48076 90 ft 34 kts 227°
2026-05-04 01:41 33.50452 126.47933 93 ft 23 kts 208°
2026-05-04 01:41 33.50389 126.48004 93 ft 19 kts 58°
2026-05-04 01:41 33.50461 126.48141 88 ft 19 kts 59°
2026-05-04 01:41 33.50531 126.48275 89 ft 19 kts 58°
2026-05-04 01:42 33.50598 126.48407 89 ft 18 kts 58°
2026-05-04 01:42 33.50592 126.48532 90 ft 18 kts 147°
2026-05-04 01:42 33.50541 126.48642 89 ft 17 kts 65°
2026-05-04 01:42 33.50600 126.48759 90 ft 16 kts 58°
2026-05-04 01:43 33.50659 126.48873 89 ft 16 kts 58°
2026-05-04 01:43 33.50714 126.48982 90 ft 15 kts 58°
2026-05-04 01:43 33.50768 126.49087 90 ft 14 kts 58°
2026-05-04 01:43 33.50820 126.49188 87 ft 14 kts 58°
2026-05-04 01:44 33.50869 126.49283 89 ft 13 kts 58°
2026-05-04 01:44 33.50916 126.49375 88 ft 12 kts 59°
2026-05-04 01:44 33.50904 126.49435 89 ft 8 kts 168°
2026-05-04 01:44 33.50856 126.49438 89 ft 7 kts 177°
2026-05-04 01:45 33.50813 126.49440 89 ft 4 kts 177°
2026-05-04 01:45 33.50804 126.49441 92 ft 0 kts 177°